Regional Weather Roundup
Issued by NWS Albany, NY

Home | Current Version | Previous Version | Text Only | Print | Product List | Glossary On
Versions: 1 2 3 4 5 6 7 8 9 10 11 12 13 14 15 16 17 18 19 20 21 22 23 24 25 26 27 28
000
ASUS41 KALY 221010
RWRALY

NEW YORK STATE HOURLY WEATHER ROUNDUP
NATIONAL WEATHER SERVICE ALBANY NY
600 AM EDT TUE AUG 22 2017

NOTE: "FAIR" INDICATES FEW OR NO CLOUDS BELOW 12,000 FEET WITH NO
SIGNIFICANT WEATHER AND/OR NO OBSTRUCTIONS TO VISIBILITY.

NYZ032-033-038>043-046>054-057>066-NYZ062>081-082-084-221100-
EAST


CITY           SKY/WX    TMP DP  RH WIND       PRES   REMARKS
ALBANY         PTCLDY    71  68  90 S6        29.99S
GLENS FALLS    CLOUDY    61  60  97 CALM      29.98S FOG
POUGHKEEPSIE   CLEAR     66  65  96 CALM      30.00F
NEWBURGH       CLEAR     70  70 100 W6        30.04S
MONTGOMERY     FOG       67  66  97 CALM      30.02S VSB 1/2
WHITE PLAINS   CLEAR     73  70  90 CALM      30.03F
ISLIP          MOCLDY    76  74  93 SW9       30.04S
NEW YORK CITY  PTCLDY    75  73  93 S8        30.02F
CENTRAL PARK   CLEAR     75  70  84 CALM      30.06S
$$

NYZ005>009-017-018-044>046-055-056-221100-
CENTRAL


CITY           SKY/WX    TMP DP  RH WIND       PRES   REMARKS
FULTON         MOCLDY    69  66  90 SE6       29.92F
SYRACUSE       PTCLDY    67  65  93 E5        29.92F
ROME           CLEAR     64  63  96 SE6       29.96F
ELMIRA         CLOUDY    64  32  30 CALM      29.99S FOG
BINGHAMTON     MOCLDY    66  66 100 S7        30.03S FOG
MONTICELLO     FOG       62  62 100 CALM      30.07F VSB 1/2
$$

NYZ026>034-041>043-087-221100-
NORTH


CITY           SKY/WX    TMP DP  RH WIND       PRES   REMARKS
WATERTOWN      CLEAR     68  66  93 CALM      29.88F
FORT DRUM      NOT AVBL
OGDENSBURG     FAIR      66  64  96 CALM      29.89F
MASSENA        CLEAR     64  63  96 CALM      29.90F
SARANAC LAKE   FOG       53  53 100 CALM      29.98F VSB 1/4
PLATTSBURGH    PTCLDY    64  61  90 CALM      29.93S
$$

NYZ001>004-010>016-019>021-085-221100-
WEST


CITY           SKY/WX    TMP DP  RH WIND       PRES   REMARKS
NIAGARA FALLS  CLOUDY    77  69  76 SW13      29.86F
BUFFALO        CLOUDY    75  68  78 S15       29.88F
DUNKIRK        CLEAR     75  69  81 S15       29.90F
JAMESTOWN      CLEAR     69  67  93 S8        29.99F
WELLSVILLE     CLEAR     71  67  87 S7        30.04S
ROCHESTER      MOCLDY    72  67  84 SW8       29.90F
PENN YAN       CLEAR     71  66  84 SW9       29.96F
$$

             KEY
       WCI = WIND CHILL INDEX
       VSB = VISIBILITY
       HX  = HEAT INDEX
$$




USA.gov is the U.S. government's official web portal to all federal, state and local government web resources and services.